Location: Newark
(42.1667°N, 14.5667°E)
Time: 15:28:40
(UTC+00:00)

Envisat - Pass Details

Date: 28 January 2020
Orbit: 764 x 766 km, 98.1° (Epoch: 17 February)

Event Time Altitude Azimuth Distance (km) Brightness Sun altitude
Rises 17:15:00 0° 180° (S) 3,217 6.4 -12.2°
Reaches altitude 10° 17:17:22 10° 185° (S) 2,296 5.7 -12.6°
Maximum altitude 17:22:16 50° 261° (W) 972 4.0 -13.5°
Drops below altitude 10° 17:27:13 10° 336° (NNW) 2,311 5.6 -14.4°
Sets 17:29:36 0° 342° (NNW) 3,241 6.3 -14.8°
